星链-32252 (STARLINK-32252)

导读 | 豆包AI

STARLINK-32252是美国太空探索技术公司(SpaceX)于2024年8月12日发射的星链(Starlink)星座卫星,属于低地球轨道通信卫星,是星链全球卫星互联网组网的组成部分。 它依托星链成熟的技术方案,旨在为全球偏远、基础设施匮乏地区提供高速低延迟宽带互联网服务,助力星链实现全球无缝覆盖的通信目标,进一步扩充了这个全球最大低轨卫星星座的规模。

基本信息
目录编号:
60442
目录名称:
STARLINK-32252
国际标识:
2024-144T
轨道中心:
EARTH
卫星名称:
星链-32252 (STARLINK-32252)
卫星全名:
星链-32252 (STARLINK-32252)
卫星状态:
在轨 (已飞行627 天)
发射日期:
2024-08-12 UTC
国别 :
美国 (US)
星等 :
--
轨道信息
数据来源 国际轨道数据
星历时间: 2026-04-30T08:40:17+0800
1天前
查看轨道信息
半长轴: 6853.358km
偏心率: 0.0001133
轨道倾角: 53.161°
近地点辐角 81.421°
升交点赤经 338.357°
平近点角 278.692°
近地点: 474.444km
远地点: 475.998km
周期: 94.105分钟
每日圈数: 15.301981
详细信息
卫星平台:
Starlink v2.0 mini
运营商:
太空探索技术公司
运营商所在国:
美国
制造商(研发单位):
太空探索技术公司
制造商所在国:
美国
使用方式:
暂无
卫星简介
星链(Starlink)计划是由太空探索技术公司(SpaceX)提出的一个巨型低轨卫星互联网星座项目,计划在2019年至2024年间在太空搭建由约1.2万颗卫星组成的“星链”网络,其中1584颗将部署在地球上空550千米处的近地轨道,并从2020年开始工作。该卫星仍在工作。
2D轨道图
3D轨道图
轨道高度分析图
轨道倾角分析图
轨道综合分析图
查看轨道综合分析图